Location: Follega
(52.8850°N, 5.7362°E)
Time: 23:22:47
(UTC+00:00)

ERS-1 Rocket - Pass Details

Date: 01 October 2020
Orbit: 753 x 757 km, 98.5° (Epoch: 24 October)

Event Time Altitude Azimuth Distance (km) Brightness Sun altitude
Exits shadow 22:17:58 18° 308° (NW) 1,806 5.4 -38.8°
Drops below altitude 10° 22:19:41 10° 324° (NW) 2,298 6.1 -38.9°
Sets 22:22:23 0° 337° (NNW) 3,229 7.2 -39.0°
